timestamp,wind_dir_avg,wind_spd_avg,wind_spd_max_dir,wind_spd_gust,battery_voltage,lat,long
2021-10-07 00:04:00+00:00,289.0,8.21,291.0,9.36,12.65,47.59359,-54.27349
2021-10-07 00:14:01+00:00,290.0,7.37,291.0,7.98,12.65,47.59359,-54.27349
2021-10-07 00:24:01+00:00,291.0,6.91,292.0,7.54,12.65,47.59359,-54.27349
2021-10-07 00:34:01+00:00,291.0,7.65,289.0,8.52,12.65,47.59359,-54.27349
2021-10-07 00:44:01+00:00,292.0,6.81,291.0,8.2,12.65,47.59359,-54.27349
2021-10-07 00:54:01+00:00,295.0,7.53,296.0,8.89,12.65,47.59359,-54.27349
2021-10-07 01:04:01+00:00,297.0,7.48,302.0,9.42,12.65,47.59359,-54.27349
2021-10-07 01:14:00+00:00,302.0,6.59,308.0,7.36,12.65,47.59359,-54.27349
2021-10-07 01:24:00+00:00,300.0,5.93,310.0,7.06,12.65,47.59359,-54.27349
2021-10-07 01:34:00+00:00,295.0,5.33,297.0,6.0,12.65,47.59359,-54.27349
2021-10-07 01:44:00+00:00,309.0,6.03,313.0,7.62,12.65,47.59359,-54.27349
2021-10-07 01:54:00+00:00,310.0,7.01,304.0,9.35,12.65,47.59359,-54.27349
2021-10-07 02:04:00+00:00,320.0,7.02,309.0,8.38,12.65,47.59359,-54.27349
2021-10-07 02:14:01+00:00,312.0,6.38,321.0,7.78,12.57,47.59359,-54.27349
2021-10-07 02:24:01+00:00,312.0,6.48,317.0,8.26,12.57,47.59359,-54.27349
2021-10-07 02:34:01+00:00,320.0,7.47,321.0,8.8,12.57,47.59359,-54.27349
2021-10-07 02:44:01+00:00,316.0,6.86,322.0,7.35,12.57,47.59359,-54.27349
2021-10-07 02:54:01+00:00,311.0,7.01,320.0,8.13,12.57,47.59359,-54.27349
2021-10-07 03:04:01+00:00,313.0,7.54,309.0,8.45,12.57,47.59359,-54.27349
2021-10-07 03:14:00+00:00,314.0,7.29,310.0,9.29,12.57,47.59359,-54.27349
2021-10-07 03:24:00+00:00,314.0,7.5,307.0,10.11,12.57,47.59359,-54.27349
2021-10-07 03:34:00+00:00,314.0,7.07,314.0,8.46,12.57,47.59359,-54.27349
2021-10-07 03:44:00+00:00,318.0,7.17,300.0,10.05,12.57,47.59359,-54.27349
2021-10-07 03:54:00+00:00,314.0,6.95,301.0,10.29,12.57,47.59359,-54.27349
2021-10-07 04:04:00+00:00,312.0,6.48,298.0,10.3,12.57,47.59359,-54.27349
2021-10-07 04:14:00+00:00,309.0,6.43,295.0,9.5,12.57,47.59359,-54.27349
2021-10-07 04:24:00+00:00,311.0,6.39,303.0,8.27,12.57,47.59359,-54.27349
2021-10-07 04:34:00+00:00,304.0,9.1,305.0,11.55,12.57,47.59359,-54.27349
2021-10-07 04:44:00+00:00,305.0,8.34,295.0,11.08,12.57,47.59359,-54.27349
2021-10-07 04:54:00+00:00,300.0,9.58,300.0,11.78,12.57,47.59359,-54.27349
2021-10-07 05:04:00+00:00,303.0,11.18,305.0,12.63,12.57,47.59359,-54.27349
2021-10-07 05:14:01+00:00,304.0,9.76,302.0,12.49,12.57,47.59359,-54.27349
2021-10-07 05:24:01+00:00,309.0,9.81,304.0,12.25,12.57,47.59359,-54.27349
2021-10-07 05:34:01+00:00,306.0,9.92,302.0,12.16,12.57,47.59359,-54.27349
2021-10-07 05:44:01+00:00,305.0,9.05,297.0,11.84,12.57,47.59359,-54.27349
2021-10-07 05:54:01+00:00,305.0,8.49,301.0,11.84,12.57,47.59359,-54.27349
2021-10-07 06:04:01+00:00,312.0,7.64,296.0,11.45,12.57,47.59359,-54.27349
2021-10-07 06:14:01+00:00,307.0,9.78,305.0,12.04,12.49,47.59359,-54.27349
2021-10-07 06:24:01+00:00,304.0,10.83,305.0,12.64,12.49,47.59359,-54.27349
2021-10-07 06:34:01+00:00,316.0,7.76,299.0,11.48,12.49,47.59359,-54.27349
2021-10-07 06:44:01+00:00,314.0,7.96,299.0,11.71,12.49,47.59359,-54.27349
2021-10-07 06:54:01+00:00,308.0,10.21,303.0,12.3,12.49,47.59359,-54.27349
2021-10-07 07:04:01+00:00,327.0,6.57,325.0,7.24,12.49,47.59359,-54.27349
2021-10-07 07:14:01+00:00,325.0,6.82,333.0,8.52,12.49,47.59359,-54.27349
2021-10-07 07:24:01+00:00,318.0,7.29,309.0,9.14,12.49,47.59359,-54.27349
2021-10-07 07:34:01+00:00,315.0,8.01,302.0,11.2,12.49,47.59359,-54.27349
2021-10-07 07:44:01+00:00,318.0,8.31,305.0,11.45,12.49,47.59359,-54.27349
2021-10-07 07:54:01+00:00,325.0,7.8,333.0,8.84,12.49,47.59359,-54.27349
2021-10-07 08:04:01+00:00,316.0,8.81,302.0,12.07,12.49,47.59359,-54.27349
2021-10-07 08:14:01+00:00,319.0,8.33,305.0,11.24,12.41,47.59359,-54.27349
2021-10-07 08:24:01+00:00,320.0,8.06,305.0,10.97,12.41,47.59359,-54.27349
2021-10-07 08:34:01+00:00,324.0,7.43,326.0,8.41,12.41,47.59359,-54.27349
2021-10-07 08:44:01+00:00,320.0,7.08,312.0,9.54,12.41,47.59359,-54.27349
2021-10-07 08:54:01+00:00,313.0,8.29,300.0,10.82,12.41,47.59359,-54.27349
2021-10-07 09:04:01+00:00,320.0,7.62,302.0,9.61,12.41,47.59359,-54.27349
2021-10-07 09:14:01+00:00,315.0,8.14,303.0,11.04,12.41,47.59359,-54.27349
2021-10-07 09:24:01+00:00,308.0,8.78,301.0,11.54,12.41,47.59359,-54.27349
2021-10-07 09:34:01+00:00,322.0,7.56,322.0,9.1,12.41,47.59359,-54.27349
2021-10-07 09:44:01+00:00,319.0,7.62,305.0,10.28,12.41,47.59359,-54.27349
2021-10-07 09:54:01+00:00,320.0,7.52,305.0,9.54,12.41,47.59359,-54.27349
2021-10-07 10:04:01+00:00,328.0,7.03,333.0,8.47,12.41,47.59359,-54.27349
2021-10-07 10:14:01+00:00,320.0,7.82,306.0,9.32,12.49,47.59359,-54.27349
2021-10-07 10:24:01+00:00,325.0,7.92,323.0,9.12,12.49,47.59359,-54.27349
2021-10-07 10:34:01+00:00,336.0,6.87,342.0,8.4,12.49,47.59359,-54.27349
2021-10-07 10:44:01+00:00,329.0,6.93,330.0,7.72,12.49,47.59359,-54.27349
2021-10-07 10:54:01+00:00,327.0,5.67,329.0,6.46,12.49,47.59359,-54.27349
2021-10-07 11:04:01+00:00,333.0,5.49,337.0,6.53,12.49,47.59359,-54.27349
2021-10-07 11:14:01+00:00,341.0,5.42,333.0,6.08,14.0,47.59359,-54.27349
2021-10-07 11:24:01+00:00,337.0,5.56,338.0,6.44,14.0,47.59359,-54.27349
2021-10-07 11:34:01+00:00,339.0,4.76,343.0,5.39,14.0,47.59359,-54.27349
2021-10-07 11:44:01+00:00,339.0,5.02,336.0,5.97,14.0,47.59359,-54.27349
2021-10-07 11:54:01+00:00,327.0,5.05,326.0,5.62,14.0,47.59359,-54.27349
2021-10-07 12:04:01+00:00,318.0,4.65,313.0,5.33,14.0,47.59359,-54.27349
2021-10-07 12:14:01+00:00,315.0,4.65,314.0,5.36,14.4,47.59359,-54.27349
2021-10-07 12:24:01+00:00,319.0,4.52,320.0,5.77,14.4,47.59359,-54.27349
2021-10-07 12:34:01+00:00,316.0,3.78,315.0,4.92,14.4,47.59359,-54.27349
2021-10-07 12:44:01+00:00,319.0,4.05,324.0,4.8,14.4,47.59359,-54.27349
2021-10-07 12:54:01+00:00,318.0,5.49,318.0,6.25,14.4,47.59359,-54.27349
2021-10-07 13:04:01+00:00,315.0,5.14,316.0,5.56,14.4,47.59359,-54.27349
2021-10-07 13:14:01+00:00,318.0,5.42,326.0,6.31,14.24,47.59359,-54.27349
2021-10-07 13:24:01+00:00,310.0,4.95,307.0,5.64,14.24,47.59359,-54.27349
2021-10-07 13:34:01+00:00,321.0,5.09,324.0,5.74,14.24,47.59359,-54.27349
2021-10-07 13:44:01+00:00,309.0,4.09,306.0,4.53,14.24,47.59359,-54.27349
2021-10-07 13:54:01+00:00,304.0,5.15,308.0,5.88,14.24,47.59359,-54.27349
2021-10-07 14:04:01+00:00,291.0,7.07,288.0,8.66,14.24,47.59359,-54.27349
2021-10-07 14:14:01+00:00,304.0,7.17,307.0,8.13,14.32,47.59359,-54.27349
2021-10-07 14:24:01+00:00,312.0,5.54,316.0,6.09,14.32,47.59359,-54.27349
2021-10-07 14:34:01+00:00,291.0,7.71,286.0,8.9,14.32,47.59359,-54.27349
2021-10-07 14:44:01+00:00,310.0,8.44,315.0,9.64,14.32,47.59359,-54.27349
2021-10-07 14:54:01+00:00,313.0,7.56,312.0,8.29,14.32,47.59359,-54.27349
2021-10-07 15:04:01+00:00,292.0,7.83,291.0,9.15,14.32,47.59359,-54.27349
2021-10-07 15:14:01+00:00,311.0,7.45,326.0,9.84,14.08,47.59359,-54.27349
2021-10-07 15:24:01+00:00,293.0,6.6,290.0,7.7,14.08,47.59359,-54.27349
2021-10-07 15:34:01+00:00,311.0,7.04,312.0,7.7,14.08,47.59359,-54.27349
2021-10-07 15:44:01+00:00,283.0,5.65,293.0,6.67,14.08,47.59359,-54.27349
2021-10-07 15:54:01+00:00,306.0,5.91,307.0,6.58,14.08,47.59359,-54.27349
2021-10-07 16:04:01+00:00,281.0,6.86,279.0,8.46,14.08,47.59359,-54.27349
2021-10-07 16:14:01+00:00,293.0,5.74,302.0,6.71,13.6,47.59359,-54.27349
2021-10-07 16:24:01+00:00,292.0,7.67,295.0,9.25,13.6,47.59359,-54.27349
2021-10-07 16:34:01+00:00,279.0,6.9,276.0,8.54,13.6,47.59359,-54.27349
2021-10-07 16:44:01+00:00,299.0,6.22,300.0,7.25,13.6,47.59359,-54.27349
2021-10-07 16:54:01+00:00,288.0,5.99,287.0,6.81,13.6,47.59359,-54.27349
2021-10-07 17:04:01+00:00,275.0,4.25,281.0,5.95,13.6,47.59359,-54.27349
2021-10-07 17:14:01+00:00,270.0,5.72,275.0,6.39,13.76,47.59359,-54.27349
2021-10-07 17:24:01+00:00,260.0,4.82,252.0,5.57,13.76,47.59359,-54.27349
2021-10-07 17:34:01+00:00,283.0,6.01,280.0,7.31,13.76,47.59359,-54.27349
2021-10-07 17:44:01+00:00,270.0,5.2,275.0,5.9,13.76,47.59359,-54.27349
2021-10-07 17:54:01+00:00,286.0,5.97,287.0,6.97,13.76,47.59359,-54.27349
2021-10-07 18:04:01+00:00,301.0,5.98,304.0,7.23,13.76,47.59359,-54.27349
2021-10-07 18:14:01+00:00,276.0,6.53,274.0,7.74,13.84,47.59359,-54.27349
2021-10-07 18:24:01+00:00,276.0,6.82,277.0,8.42,13.84,47.59359,-54.27349
2021-10-07 18:34:01+00:00,277.0,6.75,275.0,7.65,13.84,47.59359,-54.27349
2021-10-07 18:44:01+00:00,278.0,7.06,273.0,8.36,13.84,47.59359,-54.27349
2021-10-07 18:54:01+00:00,273.0,5.28,282.0,6.14,13.84,47.59359,-54.27349
2021-10-07 19:04:01+00:00,277.0,7.35,285.0,8.64,13.84,47.59359,-54.27349
2021-10-07 19:14:01+00:00,274.0,5.77,278.0,7.03,13.84,47.59359,-54.27349
2021-10-07 19:24:01+00:00,269.0,5.29,269.0,7.21,13.84,47.59359,-54.27349
2021-10-07 19:34:01+00:00,283.0,7.27,284.0,8.31,13.84,47.59359,-54.27349
2021-10-07 19:44:01+00:00,283.0,6.58,281.0,7.04,13.84,47.59359,-54.27349
2021-10-07 19:54:01+00:00,275.0,5.87,274.0,6.53,13.84,47.59359,-54.27349
2021-10-07 20:04:01+00:00,290.0,6.01,293.0,6.89,13.84,47.59359,-54.27349
2021-10-07 20:14:01+00:00,298.0,4.56,299.0,4.87,13.6,47.59359,-54.27349
2021-10-07 20:24:01+00:00,293.0,4.73,294.0,5.31,13.6,47.59359,-54.27349
2021-10-07 20:34:01+00:00,291.0,4.23,292.0,4.77,13.6,47.59359,-54.27349
2021-10-07 20:44:01+00:00,279.0,4.27,281.0,4.74,13.6,47.59359,-54.27349
2021-10-07 20:54:01+00:00,278.0,5.59,277.0,6.1,13.6,47.59359,-54.27349
2021-10-07 21:04:01+00:00,279.0,5.92,278.0,7.69,13.6,47.59359,-54.27349
2021-10-07 21:14:01+00:00,279.0,6.32,277.0,6.77,13.13,47.59359,-54.27349
2021-10-07 21:24:01+00:00,279.0,5.88,279.0,6.4,13.13,47.59359,-54.27349
2021-10-07 21:34:01+00:00,272.0,5.53,272.0,6.05,13.13,47.59359,-54.27349
2021-10-07 21:44:01+00:00,267.0,4.8,271.0,5.15,13.13,47.59359,-54.27349
2021-10-07 21:54:01+00:00,270.0,4.55,272.0,5.23,13.13,47.59359,-54.27349
2021-10-07 22:04:01+00:00,264.0,5.44,263.0,5.81,13.13,47.59359,-54.27349
2021-10-07 22:14:01+00:00,266.0,4.72,263.0,5.19,12.65,47.59359,-54.27349
2021-10-07 22:24:01+00:00,262.0,4.41,263.0,4.71,12.65,47.59359,-54.27349
2021-10-07 22:34:01+00:00,270.0,3.84,271.0,4.29,12.65,47.59359,-54.27349
2021-10-07 22:44:01+00:00,271.0,3.94,270.0,4.25,12.65,47.59359,-54.27349
2021-10-07 22:54:01+00:00,273.0,3.45,276.0,3.73,12.65,47.59359,-54.27349
2021-10-07 23:04:01+00:00,283.0,4.52,281.0,5.07,12.65,47.59359,-54.27349
2021-10-07 23:14:01+00:00,278.0,4.98,277.0,5.47,12.65,47.59359,-54.27349
2021-10-07 23:24:01+00:00,272.0,5.01,274.0,5.53,12.65,47.59359,-54.27349
2021-10-07 23:34:01+00:00,265.0,5.01,268.0,5.42,12.65,47.59359,-54.27349
2021-10-07 23:44:01+00:00,270.0,5.36,270.0,5.82,12.65,47.59359,-54.27349
2021-10-07 23:54:01+00:00,271.0,5.35,268.0,6.0,12.65,47.59359,-54.27349
